EDT,Max TemperatureF,Mean TemperatureF,Min TemperatureF,Max Dew PointF,MeanDew PointF,Min DewpointF,Max Humidity, Mean Humidity, Min Humidity, Max Sea Level PressureIn, Mean Sea Level PressureIn, Min Sea Level PressureIn, Max VisibilityMiles, Mean VisibilityMiles, Min VisibilityMiles, Max Wind SpeedMPH, Mean Wind SpeedMPH, Max Gust SpeedMPH,PrecipitationIn, CloudCover, Events, WindDirDegrees
2012-10-1,60,50,41,46,44,39,100,74,52,29.96,29.92,29.88,10,10,1,12,6,,0.00,2,,277
2012-10-2,64,58,51,63,56,46,100,92,77,29.95,29.90,29.86,10,7,2,8,3,,0.24,8,,126
2012-10-3,71,64,57,63,59,55,100,87,60,30.18,30.05,29.94,10,7,0,12,6,,0.00,6,,201
2012-10-4,69,62,55,55,52,48,100,79,46,30.19,30.15,30.11,10,8,1,18,4,23,0.00,2,,208
2012-10-5,64,58,51,55,53,48,94,85,72,30.11,30.03,29.90,10,9,3,14,8,18,0.05,6,,215
2012-10-6,51,46,42,48,40,34,94,80,58,30.05,29.94,29.84,10,10,4,21,9,28,0.41,8,,269
2012-10-7,44,40,35,39,37,34,93,87,76,30.13,30.05,30.01,10,9,0,13,6,17,0.17,8,,241
2012-10-8,46,40,35,36,33,30,93,78,53,30.22,30.18,30.12,10,10,7,13,7,16,0.00,6,,193
2012-10-9,57,44,30,37,35,28,100,74,47,30.19,30.10,29.97,10,8,0,12,5,16,0.00,1,,186
2012-10-10,46,42,37,43,37,27,93,81,61,30.06,29.91,29.84,10,10,3,20,10,26,0.16,6,,226
2012-10-11,51,42,33,30,28,25,81,57,41,30.21,30.12,30.06,10,10,10,16,10,30,0.04,4,,240
2012-10-12,44,37,30,39,30,21,93,70,49,30.42,30.27,30.07,10,10,7,15,10,22,0.10,5,,330
2012-10-13,51,38,26,43,28,21,87,66,40,30.41,30.27,30.02,10,10,10,14,7,20,0.03,2,,172
2012-10-14,69,58,46,55,52,43,94,72,53,30.04,29.89,29.65,10,10,8,23,13,33,0.22,7,,196
2012-10-15,62,52,42,55,45,37,94,81,71,29.83,29.71,29.58,10,9,3,22,13,37,0.15,8,,250
2012-10-16,46,42,37,39,37,34,93,79,62,29.93,29.89,29.84,10,10,7,13,7,17,0.00,5,,301
2012-10-17,64,50,37,43,38,34,87,65,45,29.91,29.86,29.81,10,10,10,16,8,21,0.00,1,,179
2012-10-18,64,54,44,45,42,37,93,71,49,29.84,29.75,29.67,10,10,2,17,11,34,0.68,3,,170
2012-10-19,62,50,37,46,38,32,93,70,32,29.81,29.71,29.62,10,9,0,15,6,21,0.00,3,,190
2012-10-20,50,46,42,43,39,37,93,80,62,29.84,29.71,29.64,10,10,6,22,10,31,0.38,8,,217
2012-10-21,53,48,42,45,40,34,93,77,54,30.12,30.03,29.86,10,9,1,16,8,22,0.05,5,,261
2012-10-22,64,50,37,46,41,34,93,67,49,30.17,30.12,30.07,10,10,10,9,6,,0.00,2,,217
2012-10-23,59,56,53,55,53,46,100,88,67,30.08,30.05,30.02,10,8,2,7,4,,0.20,8,Thunderstorm,193
2012-10-24,66,60,55,57,55,54,100,84,64,30.13,30.10,30.07,10,7,0,10,3,,0.07,8,,200
2012-10-25,77,67,57,54,50,45,82,61,34,30.14,30.09,30.03,10,10,10,16,8,21,0.00,1,,181
2012-10-26,69,56,44,54,50,43,93,80,56,30.15,30.09,30.04,10,9,3,17,11,21,0.41,4,,210
2012-10-27,44,42,41,43,41,39,100,91,87,30.13,30.03,29.96,10,4,0,15,10,23,0.76,8,,10
2012-10-28,41,39,37,39,36,36,100,92,87,30.04,29.97,29.85,10,6,0,18,11,22,0.51,8,,17
2012-10-29,39,38,37,37,37,34,100,93,87,29.86,29.61,29.14,10,6,0,33,15,46,1.58,8,,357
2012-10-30,48,42,37,46,38,32,93,82,70,29.36,29.18,28.97,10,9,3,29,16,41,0.20,7,,86
2012-10-31,41,38,35,39,34,30,93,86,81,29.50,29.42,29.35,10,9,2,17,6,22,0.09,8,,205